Time,TemperatureF,DewpointF,PressureIn,WindDirection,WindDirectionDegrees,WindSpeedMPH,WindSpeedGustMPH,Humidity,HourlyPrecipIn,Conditions,Clouds,dailyrainin,SoftwareType,DateUTC
2013-03-30 00:00:00,46.4,28.8,30.08,NW,315,1.8,3.4,50,0.00,,,0.00,WUHU216HW,2013-03-30 04:00:00,
2013-03-30 00:05:00,46.3,29.1,30.08,NNW,338,1.3,4.5,51,0.00,,,0.00,WUHU216HW,2013-03-30 04:05:00,
2013-03-30 00:10:00,46.1,28.9,30.08,West,270,0.2,4.5,51,0.00,,,0.00,WUHU216HW,2013-03-30 04:10:00,
2013-03-30 00:15:00,45.9,28.8,30.08,North,0,0.4,2.5,51,0.00,,,0.00,WUHU216HW,2013-03-30 04:15:00,
2013-03-30 00:20:00,45.9,28.8,30.08,NNW,338,0.0,2.5,51,0.00,,,0.00,WUHU216HW,2013-03-30 04:20:00,
2013-03-30 00:25:00,45.7,29.1,30.08,North,0,0.4,2.5,52,0.00,,,0.00,WUHU216HW,2013-03-30 04:25:00,
2013-03-30 00:30:00,45.7,29.1,30.08,NW,315,1.8,2.5,52,0.00,,,0.00,WUHU216HW,2013-03-30 04:30:00,
2013-03-30 00:35:00,45.5,28.9,30.08,NW,315,0.4,1.8,52,0.00,,,0.00,WUHU216HW,2013-03-30 04:35:00,
2013-03-30 00:40:00,45.4,28.7,30.09,NW,315,0.2,2.2,52,0.00,,,0.00,WUHU216HW,2013-03-30 04:40:00,
2013-03-30 00:45:00,45.4,28.7,30.09,NNW,338,0.2,2.2,52,0.00,,,0.00,WUHU216HW,2013-03-30 04:45:00,
2013-03-30 00:50:00,45.4,29.2,30.09,NW,315,0.0,1.1,53,0.00,,,0.00,WUHU216HW,2013-03-30 04:50:00,
2013-03-30 00:55:00,45.4,29.2,30.09,SW,225,0.2,1.1,53,0.00,,,0.00,WUHU216HW,2013-03-30 04:55:00,
2013-03-30 01:00:00,45.0,28.9,30.09,NNW,338,0.7,1.1,53,0.00,,,0.00,WUHU216HW,2013-03-30 05:00:00,
2013-03-30 01:05:00,45.0,28.9,30.09,WNW,293,0.4,1.1,53,0.00,,,0.00,WUHU216HW,2013-03-30 05:05:00,
2013-03-30 01:10:00,45.0,29.4,30.09,WSW,248,0.4,1.3,54,0.00,,,0.00,WUHU216HW,2013-03-30 05:10:00,
2013-03-30 01:15:00,45.0,29.4,30.09,SW,225,0.9,1.3,54,0.00,,,0.00,WUHU216HW,2013-03-30 05:15:00,
2013-03-30 01:20:00,44.8,29.2,30.09,SW,225,0.9,1.1,54,0.00,,,0.00,WUHU216HW,2013-03-30 05:20:00,
2013-03-30 01:25:00,44.8,28.7,30.09,WNW,293,0.4,1.1,53,0.00,,,0.00,WUHU216HW,2013-03-30 05:25:00,
2013-03-30 01:30:00,44.8,28.7,30.08,WNW,293,0.4,1.1,53,0.00,,,0.00,WUHU216HW,2013-03-30 05:30:00,
2013-03-30 01:35:00,44.6,29.0,30.08,WSW,248,1.8,2.0,54,0.00,,,0.00,WUHU216HW,2013-03-30 05:35:00,
2013-03-30 01:40:00,44.6,29.0,30.08,SW,225,0.2,2.0,54,0.00,,,0.00,WUHU216HW,2013-03-30 05:40:00,
2013-03-30 01:45:00,44.5,28.8,30.08,NW,315,0.4,2.5,54,0.00,,,0.00,WUHU216HW,2013-03-30 05:45:00,
2013-03-30 01:50:00,44.3,28.6,30.08,NW,315,0.4,2.5,54,0.00,,,0.00,WUHU216HW,2013-03-30 05:50:00,
2013-03-30 01:55:00,44.3,28.6,30.09,NNW,338,0.4,1.6,54,0.00,,,0.00,WUHU216HW,2013-03-30 05:55:00,
2013-03-30 02:00:00,44.3,29.1,30.08,NNW,338,0.0,1.3,55,0.00,,,0.00,WUHU216HW,2013-03-30 06:00:00,
2013-03-30 02:05:00,44.1,28.9,30.08,NNW,338,0.0,0.4,55,0.00,,,0.00,WUHU216HW,2013-03-30 06:05:00,
2013-03-30 02:10:00,44.1,28.9,30.09,NNW,338,0.0,0.0,55,0.00,,,0.00,WUHU216HW,2013-03-30 06:10:00,
2013-03-30 02:15:00,43.9,28.7,30.08,NNW,338,0.0,0.0,55,0.00,,,0.00,WUHU216HW,2013-03-30 06:15:00,
2013-03-30 02:20:00,43.7,28.6,30.08,NW,315,0.0,0.2,55,0.00,,,0.00,WUHU216HW,2013-03-30 06:20:00,
2013-03-30 02:25:00,43.6,28.5,30.08,NW,315,0.0,0.2,55,0.00,,,0.00,WUHU216HW,2013-03-30 06:25:00,
2013-03-30 02:30:00,43.6,28.8,30.08,NW,315,0.0,0.0,56,0.00,,,0.00,WUHU216HW,2013-03-30 06:30:00,
2013-03-30 02:35:00,43.4,28.7,30.08,NNE,23,0.0,0.7,56,0.00,,,0.00,WUHU216HW,2013-03-30 06:35:00,
2013-03-30 02:40:00,43.2,28.5,30.08,NNE,23,0.0,0.7,56,0.00,,,0.00,WUHU216HW,2013-03-30 06:40:00,
2013-03-30 02:45:00,42.8,28.6,30.08,NNE,23,0.0,0.0,57,0.00,,,0.00,WUHU216HW,2013-03-30 06:45:00,
2013-03-30 02:50:00,42.7,28.5,30.08,NNE,23,0.4,0.7,57,0.00,,,0.00,WUHU216HW,2013-03-30 06:50:00,
2013-03-30 02:55:00,42.5,28.3,30.08,NNE,23,0.0,0.7,57,0.00,,,0.00,WUHU216HW,2013-03-30 06:55:00,
2013-03-30 03:00:00,42.3,28.5,30.08,NNE,23,0.0,0.4,58,0.00,,,0.00,WUHU216HW,2013-03-30 07:00:00,
2013-03-30 03:05:00,42.1,28.4,30.08,NNE,23,0.0,0.0,58,0.00,,,0.00,WUHU216HW,2013-03-30 07:05:00,
2013-03-30 03:10:00,42.1,28.4,30.08,NNE,23,0.0,0.0,58,0.00,,,0.00,WUHU216HW,2013-03-30 07:10:00,
2013-03-30 03:15:00,41.8,28.4,30.08,WSW,248,0.0,0.4,59,0.00,,,0.00,WUHU216HW,2013-03-30 07:15:00,
2013-03-30 03:20:00,41.8,28.4,30.08,WNW,293,0.0,0.4,59,0.00,,,0.00,WUHU216HW,2013-03-30 07:20:00,
2013-03-30 03:25:00,41.6,28.3,30.08,West,270,0.0,0.0,59,0.00,,,0.00,WUHU216HW,2013-03-30 07:25:00,
2013-03-30 03:30:00,41.4,28.6,30.08,WNW,293,0.4,0.9,60,0.00,,,0.00,WUHU216HW,2013-03-30 07:30:00,
2013-03-30 03:35:00,41.4,28.6,30.08,WSW,248,0.4,1.1,60,0.00,,,0.00,WUHU216HW,2013-03-30 07:35:00,
2013-03-30 03:40:00,41.4,29.0,30.08,NW,315,0.0,1.1,61,0.00,,,0.00,WUHU216HW,2013-03-30 07:40:00,
2013-03-30 03:45:00,41.4,29.0,30.08,WNW,293,0.0,1.1,61,0.00,,,0.00,WUHU216HW,2013-03-30 07:45:00,
2013-03-30 03:50:00,41.4,29.0,30.07,North,0,0.0,0.4,61,0.00,,,0.00,WUHU216HW,2013-03-30 07:50:00,
2013-03-30 03:55:00,41.4,29.0,30.07,West,270,0.0,0.4,61,0.00,,,0.00,WUHU216HW,2013-03-30 07:55:00,
2013-03-30 04:00:00,41.4,29.0,30.07,WNW,293,1.1,1.8,61,0.00,,,0.00,WUHU216HW,2013-03-30 08:00:00,
2013-03-30 04:05:00,41.4,29.0,30.08,NNW,338,0.4,2.5,61,0.00,,,0.00,WUHU216HW,2013-03-30 08:05:00,
2013-03-30 04:10:00,41.4,29.0,30.07,NNW,338,0.7,2.5,61,0.00,,,0.00,WUHU216HW,2013-03-30 08:10:00,
2013-03-30 04:15:00,41.6,29.2,30.08,NW,315,0.2,1.3,61,0.00,,,0.00,WUHU216HW,2013-03-30 08:15:00,
2013-03-30 04:20:00,41.6,29.2,30.08,West,270,0.4,2.2,61,0.00,,,0.00,WUHU216HW,2013-03-30 08:20:00,
2013-03-30 04:25:00,41.6,29.5,30.08,NW,315,0.0,2.2,62,0.00,,,0.00,WUHU216HW,2013-03-30 08:25:00,
2013-03-30 04:30:00,41.6,29.2,30.08,WSW,248,0.0,1.3,61,0.00,,,0.00,WUHU216HW,2013-03-30 08:30:00,
2013-03-30 04:35:00,41.6,29.5,30.08,SSW,203,0.0,1.3,62,0.00,,,0.00,WUHU216HW,2013-03-30 08:35:00,
2013-03-30 04:40:00,41.6,29.5,30.08,WNW,293,0.2,1.1,62,0.00,,,0.00,WUHU216HW,2013-03-30 08:40:00,
2013-03-30 04:45:00,41.4,29.3,30.08,NW,315,0.0,1.1,62,0.00,,,0.00,WUHU216HW,2013-03-30 08:45:00,
2013-03-30 04:50:00,41.4,29.3,30.09,NW,315,0.0,0.7,62,0.00,,,0.00,WUHU216HW,2013-03-30 08:50:00,
2013-03-30 04:55:00,41.4,29.3,30.09,North,0,0.2,1.6,62,0.00,,,0.00,WUHU216HW,2013-03-30 08:55:00,
2013-03-30 05:00:00,41.4,29.3,30.09,NNE,23,0.0,1.6,62,0.00,,,0.00,WUHU216HW,2013-03-30 09:00:00,
2013-03-30 05:05:00,41.4,29.3,30.08,North,0,0.2,1.6,62,0.00,,,0.00,WUHU216HW,2013-03-30 09:05:00,
2013-03-30 05:10:00,41.4,29.3,30.08,West,270,0.0,1.1,62,0.00,,,0.00,WUHU216HW,2013-03-30 09:10:00,
2013-03-30 05:15:00,41.2,29.2,30.08,SW,225,0.0,1.1,62,0.00,,,0.00,WUHU216HW,2013-03-30 09:15:00,
2013-03-30 05:20:00,41.2,29.5,30.08,WSW,248,0.4,1.1,63,0.00,,,0.00,WUHU216HW,2013-03-30 09:20:00,
2013-03-30 05:25:00,41.0,29.4,30.09,WNW,293,0.0,1.1,63,0.00,,,0.00,WUHU216HW,2013-03-30 09:25:00,
2013-03-30 05:30:00,41.0,29.4,30.09,West,270,0.0,1.8,63,0.00,,,0.00,WUHU216HW,2013-03-30 09:30:00,
2013-03-30 05:34:00,41.0,29.4,30.09,West,270,0.0,1.8,63,0.00,,,0.00,WUHU216HW,2013-03-30 09:34:00,
2013-03-30 05:39:00,40.9,29.3,30.09,NW,315,0.0,1.6,63,0.00,,,0.00,WUHU216HW,2013-03-30 09:39:00,
2013-03-30 05:44:00,40.9,29.3,30.08,NW,315,0.0,1.1,63,0.00,,,0.00,WUHU216HW,2013-03-30 09:44:00,
2013-03-30 05:49:00,40.9,29.3,30.09,WSW,248,0.2,0.2,63,0.00,,,0.00,WUHU216HW,2013-03-30 09:49:00,
2013-03-30 05:54:00,40.7,29.1,30.09,WSW,248,0.4,0.9,63,0.00,,,0.00,WUHU216HW,2013-03-30 09:54:00,
2013-03-30 05:59:00,40.7,29.1,30.09,WSW,248,0.0,0.9,63,0.00,,,0.00,WUHU216HW,2013-03-30 09:59:00,
2013-03-30 06:04:00,40.5,29.3,30.09,WSW,248,0.0,0.4,64,0.00,,,0.00,WUHU216HW,2013-03-30 10:04:00,
2013-03-30 06:09:00,40.3,29.1,30.09,WSW,248,0.0,0.4,64,0.00,,,0.00,WUHU216HW,2013-03-30 10:09:00,
2013-03-30 06:14:00,40.1,28.9,30.09,WSW,248,0.0,0.2,64,0.00,,,0.00,WUHU216HW,2013-03-30 10:14:00,
2013-03-30 06:19:00,40.0,28.7,30.09,SW,225,0.0,0.0,64,0.00,,,0.00,WUHU216HW,2013-03-30 10:19:00,
2013-03-30 06:24:00,40.0,28.7,30.09,WNW,293,0.2,0.4,64,0.00,,,0.00,WUHU216HW,2013-03-30 10:24:00,
2013-03-30 06:29:00,40.0,28.7,30.09,WNW,293,0.7,0.7,64,0.00,,,0.00,WUHU216HW,2013-03-30 10:29:00,
2013-03-30 06:34:00,40.0,28.7,30.09,West,270,0.0,1.1,64,0.00,,,0.00,WUHU216HW,2013-03-30 10:34:00,
2013-03-30 06:39:00,40.0,28.7,30.10,NW,315,0.0,1.3,64,0.00,,,0.00,WUHU216HW,2013-03-30 10:39:00,
2013-03-30 06:44:00,40.0,28.7,30.10,NNW,338,0.4,1.6,64,0.00,,,0.00,WUHU216HW,2013-03-30 10:44:00,
2013-03-30 06:49:00,40.0,28.7,30.10,NNW,338,1.1,1.6,64,0.00,,,0.00,WUHU216HW,2013-03-30 10:49:00,
2013-03-30 06:54:00,40.0,28.7,30.10,NW,315,0.0,2.0,64,0.00,,,0.00,WUHU216HW,2013-03-30 10:54:00,
2013-03-30 06:59:00,40.0,29.1,30.10,NNW,338,0.9,2.0,65,0.00,,,0.00,WUHU216HW,2013-03-30 10:59:00,
2013-03-30 07:04:00,40.0,29.1,30.10,NNW,338,0.4,1.6,65,0.00,,,0.00,WUHU216HW,2013-03-30 11:04:00,
2013-03-30 07:09:00,40.1,29.6,30.10,WSW,248,0.4,1.6,66,0.00,,,0.00,WUHU216HW,2013-03-30 11:09:00,
2013-03-30 07:14:00,40.1,29.3,30.10,West,270,0.0,0.7,65,0.00,,,0.00,WUHU216HW,2013-03-30 11:14:00,
2013-03-30 07:19:00,40.9,30.3,30.11,NNW,338,0.0,0.9,66,0.00,,,0.00,WUHU216HW,2013-03-30 11:19:00,
2013-03-30 07:24:00,41.8,31.2,30.11,NNW,338,0.4,0.9,66,0.00,,,0.00,WUHU216HW,2013-03-30 11:24:00,
2013-03-30 07:29:00,42.1,31.1,30.11,NW,315,0.4,0.7,65,0.00,,,0.00,WUHU216HW,2013-03-30 11:29:00,
2013-03-30 07:34:00,42.3,31.0,30.12,NNW,338,0.4,2.0,64,0.00,,,0.00,WUHU216HW,2013-03-30 11:34:00,
2013-03-30 07:39:00,43.4,32.0,30.12,NW,315,1.3,2.2,64,0.00,,,0.00,WUHU216HW,2013-03-30 11:39:00,
2013-03-30 07:44:00,45.0,33.1,30.12,NNW,338,1.1,2.2,63,0.00,,,0.00,WUHU216HW,2013-03-30 11:44:00,
2013-03-30 07:49:00,46.6,34.3,30.12,NW,315,0.7,2.5,62,0.00,,,0.00,WUHU216HW,2013-03-30 11:49:00,
2013-03-30 07:54:00,47.2,34.0,30.12,West,270,2.5,2.5,60,0.00,,,0.00,WUHU216HW,2013-03-30 11:54:00,
2013-03-30 07:59:00,46.6,32.6,30.12,SW,225,1.1,2.7,58,0.00,,,0.00,WUHU216HW,2013-03-30 11:59:00,
2013-03-30 08:04:00,46.4,32.4,30.12,North,0,1.3,2.7,58,0.00,,,0.00,WUHU216HW,2013-03-30 12:04:00,
2013-03-30 08:09:00,46.8,32.8,30.12,SW,225,0.4,3.1,58,0.00,,,0.00,WUHU216HW,2013-03-30 12:09:00,
2013-03-30 08:14:00,47.2,33.6,30.12,SSW,203,1.3,3.1,59,0.00,,,0.00,WUHU216HW,2013-03-30 12:14:00,
2013-03-30 08:19:00,47.9,33.4,30.12,NNW,338,1.1,2.5,57,0.00,,,0.00,WUHU216HW,2013-03-30 12:19:00,
2013-03-30 08:24:00,48.4,33.4,30.12,North,0,1.8,4.7,56,0.00,,,0.00,WUHU216HW,2013-03-30 12:24:00,
2013-03-30 08:29:00,48.8,33.8,30.12,NNW,338,1.1,4.7,56,0.00,,,0.00,WUHU216HW,2013-03-30 12:29:00,
2013-03-30 08:34:00,49.7,34.1,30.13,North,0,1.6,4.0,55,0.00,,,0.00,WUHU216HW,2013-03-30 12:34:00,
2013-03-30 08:39:00,50.2,34.2,30.12,North,0,1.8,4.0,54,0.00,,,0.00,WUHU216HW,2013-03-30 12:39:00,
2013-03-30 08:44:00,50.4,33.5,30.12,NNW,338,0.4,3.6,52,0.00,,,0.00,WUHU216HW,2013-03-30 12:44:00,
2013-03-30 08:49:00,50.4,33.5,30.12,WSW,248,1.1,3.6,52,0.00,,,0.00,WUHU216HW,2013-03-30 12:49:00,
2013-03-30 08:54:00,50.4,33.0,30.12,NW,315,2.0,2.9,51,0.00,,,0.00,WUHU216HW,2013-03-30 12:54:00,
2013-03-30 08:59:00,50.4,32.6,30.12,North,0,1.1,3.8,50,0.00,,,0.00,WUHU216HW,2013-03-30 12:59:00,
2013-03-30 09:04:00,50.6,33.1,30.13,WSW,248,0.9,3.8,51,0.00,,,0.00,WUHU216HW,2013-03-30 13:04:00,
2013-03-30 09:09:00,51.1,33.2,30.13,NNW,338,3.4,4.0,50,0.00,,,0.00,WUHU216HW,2013-03-30 13:09:00,
2013-03-30 09:14:00,51.5,33.5,30.13,WSW,248,0.9,4.0,50,0.00,,,0.00,WUHU216HW,2013-03-30 13:14:00,
2013-03-30 09:19:00,51.7,33.1,30.13,NNW,338,2.5,3.4,49,0.00,,,0.00,WUHU216HW,2013-03-30 13:19:00,
2013-03-30 09:24:00,52.0,33.5,30.13,West,270,0.4,3.4,49,0.00,,,0.00,WUHU216HW,2013-03-30 13:24:00,
2013-03-30 09:29:00,52.2,33.6,30.12,WNW,293,1.1,3.4,49,0.00,,,0.00,WUHU216HW,2013-03-30 13:29:00,
2013-03-30 09:34:00,52.6,33.9,30.13,NNW,338,0.9,2.5,49,0.00,,,0.00,WUHU216HW,2013-03-30 13:34:00,
2013-03-30 09:39:00,52.9,33.7,30.12,North,0,1.8,4.0,48,0.00,,,0.00,WUHU216HW,2013-03-30 13:39:00,
2013-03-30 09:44:00,53.1,32.8,30.12,NNW,338,3.6,4.0,46,0.00,,,0.00,WUHU216HW,2013-03-30 13:44:00,
2013-03-30 09:49:00,53.3,34.0,30.13,NNW,338,0.7,3.8,48,0.00,,,0.00,WUHU216HW,2013-03-30 13:49:00,
2013-03-30 09:54:00,53.6,33.8,30.12,WNW,293,0.0,3.8,47,0.00,,,0.00,WUHU216HW,2013-03-30 13:54:00,
2013-03-30 09:59:00,54.0,33.6,30.12,West,270,0.9,2.9,46,0.00,,,0.00,WUHU216HW,2013-03-30 13:59:00,
2013-03-30 10:04:00,53.8,33.4,30.13,North,0,0.9,4.0,46,0.00,,,0.00,WUHU216HW,2013-03-30 14:04:00,
2013-03-30 10:09:00,54.0,33.6,30.13,ENE,68,0.4,4.0,46,0.00,,,0.00,WUHU216HW,2013-03-30 14:09:00,
2013-03-30 10:14:00,54.4,33.8,30.13,WSW,248,2.0,3.1,46,0.00,,,0.00,WUHU216HW,2013-03-30 14:14:00,
2013-03-30 10:19:00,54.4,32.8,30.13,WNW,293,1.1,3.8,44,0.00,,,0.00,WUHU216HW,2013-03-30 14:19:00,
2013-03-30 10:24:00,54.7,33.1,30.13,SE,135,0.9,3.8,44,0.00,,,0.00,WUHU216HW,2013-03-30 14:24:00,
2013-03-30 10:29:00,54.9,33.2,30.12,NW,315,1.8,3.6,44,0.00,,,0.00,WUHU216HW,2013-03-30 14:29:00,
2013-03-30 10:34:00,54.9,32.1,30.12,NNW,338,0.9,3.6,42,0.00,,,0.00,WUHU216HW,2013-03-30 14:34:00,
2013-03-30 10:39:00,55.1,33.4,30.12,West,270,2.2,3.4,44,0.00,,,0.00,WUHU216HW,2013-03-30 14:39:00,
2013-03-30 10:44:00,55.8,34.1,30.12,SW,225,5.1,5.1,44,0.00,,,0.00,WUHU216HW,2013-03-30 14:44:00,
2013-03-30 10:49:00,56.3,34.0,30.12,SSE,158,0.9,5.1,43,0.00,,,0.00,WUHU216HW,2013-03-30 14:49:00,
2013-03-30 10:54:00,56.5,31.8,30.12,WNW,293,2.7,5.6,39,0.00,,,0.00,WUHU216HW,2013-03-30 14:54:00,
2013-03-30 10:59:00,56.3,32.3,30.12,East,90,1.1,5.6,40,0.00,,,0.00,WUHU216HW,2013-03-30 14:59:00,
2013-03-30 11:04:00,56.5,30.3,30.12,NNW,338,1.6,4.0,37,0.00,,,0.00,WUHU216HW,2013-03-30 15:04:00,
2013-03-30 11:09:00,56.7,31.2,30.12,NNW,338,1.1,4.0,38,0.00,,,0.00,WUHU216HW,2013-03-30 15:09:00,
2013-03-30 11:14:00,56.9,30.7,30.12,NNE,23,2.5,4.5,37,0.00,,,0.00,WUHU216HW,2013-03-30 15:14:00,
2013-03-30 11:19:00,57.4,31.1,30.12,WSW,248,3.1,4.5,37,0.00,,,0.00,WUHU216HW,2013-03-30 15:19:00,
2013-03-30 11:24:00,57.6,28.5,30.12,NNW,338,2.2,4.7,33,0.00,,,0.00,WUHU216HW,2013-03-30 15:24:00,
2013-03-30 11:29:00,57.6,29.3,30.11,North,0,3.4,4.7,34,0.00,,,0.00,WUHU216HW,2013-03-30 15:29:00,
2013-03-30 11:34:00,57.2,28.2,30.11,WNW,293,2.2,6.0,33,0.00,,,0.00,WUHU216HW,2013-03-30 15:34:00,
2013-03-30 11:39:00,57.8,29.4,30.11,North,0,2.5,6.0,34,0.00,,,0.00,WUHU216HW,2013-03-30 15:39:00,
2013-03-30 11:44:00,58.5,30.1,30.11,NNW,338,1.3,3.1,34,0.00,,,0.00,WUHU216HW,2013-03-30 15:44:00,
2013-03-30 11:49:00,58.9,30.3,30.11,WSW,248,3.1,4.0,34,0.00,,,0.00,WUHU216HW,2013-03-30 15:49:00,
2013-03-30 11:54:00,59.0,29.8,30.11,WSW,248,1.8,4.7,33,0.00,,,0.00,WUHU216HW,2013-03-30 15:54:00,
2013-03-30 11:59:00,59.2,29.3,30.11,North,0,2.5,4.9,32,0.00,,,0.00,WUHU216HW,2013-03-30 15:59:00,
2013-03-30 12:04:00,58.9,29.7,30.11,North,0,1.3,4.9,33,0.00,,,0.00,WUHU216HW,2013-03-30 16:04:00,
2013-03-30 12:09:00,59.0,30.5,30.10,North,0,2.5,6.3,34,0.00,,,0.00,WUHU216HW,2013-03-30 16:09:00,
2013-03-30 12:14:00,58.9,28.3,30.10,WNW,293,2.9,6.3,31,0.00,,,0.00,WUHU216HW,2013-03-30 16:14:00,
2013-03-30 12:19:00,58.9,29.7,30.10,WNW,293,2.7,6.3,33,0.00,,,0.00,WUHU216HW,2013-03-30 16:19:00,
2013-03-30 12:24:00,59.0,28.5,30.10,North,0,4.0,7.6,31,0.00,,,0.00,WUHU216HW,2013-03-30 16:24:00,
2013-03-30 12:29:00,58.9,29.7,30.10,North,0,1.1,7.6,33,0.00,,,0.00,WUHU216HW,2013-03-30 16:29:00,
2013-03-30 12:34:00,59.0,29.8,30.09,SSW,203,1.8,5.4,33,0.00,,,0.00,WUHU216HW,2013-03-30 16:34:00,
2013-03-30 12:39:00,59.4,30.2,30.09,SSE,158,0.9,5.4,33,0.00,,,0.00,WUHU216HW,2013-03-30 16:39:00,
2013-03-30 12:44:00,59.0,29.8,30.09,North,0,2.2,3.8,33,0.00,,,0.00,WUHU216HW,2013-03-30 16:44:00,
2013-03-30 12:49:00,58.3,28.4,30.09,NW,315,1.8,6.3,32,0.00,,,0.00,WUHU216HW,2013-03-30 16:49:00,
2013-03-30 12:54:00,58.0,28.9,30.09,WSW,248,1.8,6.3,33,0.00,,,0.00,WUHU216HW,2013-03-30 16:54:00,
2013-03-30 12:59:00,58.3,29.2,30.08,SSW,203,0.7,4.7,33,0.00,,,0.00,WUHU216HW,2013-03-30 16:59:00,
2013-03-30 13:04:00,58.7,29.5,30.08,West,270,4.5,5.4,33,0.00,,,0.00,WUHU216HW,2013-03-30 17:04:00,
2013-03-30 13:09:00,59.2,29.3,30.08,SW,225,2.2,8.3,32,0.00,,,0.00,WUHU216HW,2013-03-30 17:09:00,
2013-03-30 13:14:00,59.8,29.7,30.08,South,180,1.1,8.3,32,0.00,,,0.00,WUHU216HW,2013-03-30 17:14:00,
2013-03-30 13:19:00,60.1,30.0,30.08,SE,135,0.7,5.1,32,0.00,,,0.00,WUHU216HW,2013-03-30 17:19:00,
2013-03-30 13:24:00,60.7,30.4,30.07,North,0,4.0,7.8,32,0.00,,,0.00,WUHU216HW,2013-03-30 17:24:00,
2013-03-30 13:29:00,60.1,29.4,30.07,North,0,1.1,7.8,31,0.00,,,0.00,WUHU216HW,2013-03-30 17:29:00,
2013-03-30 13:34:00,59.8,28.3,30.07,WSW,248,5.8,5.8,30,0.00,,,0.00,WUHU216HW,2013-03-30 17:34:00,
2013-03-30 13:39:00,59.6,28.2,30.07,NNW,338,1.8,7.2,30,0.00,,,0.00,WUHU216HW,2013-03-30 17:39:00,
2013-03-30 13:44:00,59.6,28.9,30.06,NW,315,3.8,7.2,31,0.00,,,0.00,WUHU216HW,2013-03-30 17:44:00,
2013-03-30 13:49:00,60.3,29.4,30.06,NNW,338,2.5,4.9,31,0.00,,,0.00,WUHU216HW,2013-03-30 17:49:00,
2013-03-30 13:54:00,60.8,30.6,30.06,NNW,338,1.1,4.9,32,0.00,,,0.00,WUHU216HW,2013-03-30 17:54:00,
2013-03-30 13:59:00,61.0,29.4,30.06,West,270,2.2,4.0,30,0.00,,,0.00,WUHU216HW,2013-03-30 17:59:00,
2013-03-30 14:04:00,61.2,28.5,30.05,South,180,4.7,4.7,29,0.00,,,0.00,WUHU216HW,2013-03-30 18:04:00,
2013-03-30 14:09:00,60.8,28.2,30.05,NNW,338,1.8,4.7,29,0.00,,,0.00,WUHU216HW,2013-03-30 18:09:00,
2013-03-30 14:14:00,60.7,29.0,30.05,North,0,1.8,4.7,30,0.00,,,0.00,WUHU216HW,2013-03-30 18:14:00,
2013-03-30 14:19:00,60.8,27.3,30.05,West,270,4.3,10.5,28,0.00,,,0.00,WUHU216HW,2013-03-30 18:19:00,
2013-03-30 14:24:00,60.7,27.1,30.05,NNW,338,4.9,10.5,28,0.00,,,0.00,WUHU216HW,2013-03-30 18:24:00,
2013-03-30 14:29:00,59.8,25.4,30.05,NNW,338,2.9,5.4,27,0.00,,,0.00,WUHU216HW,2013-03-30 18:29:00,
2013-03-30 14:34:00,58.9,26.6,30.05,WSW,248,3.1,6.9,29,0.00,,,0.00,WUHU216HW,2013-03-30 18:34:00,
2013-03-30 14:39:00,58.7,26.5,30.05,South,180,1.3,6.9,29,0.00,,,0.00,WUHU216HW,2013-03-30 18:39:00,
2013-03-30 14:44:00,58.1,25.9,30.05,NNW,338,2.7,4.7,29,0.00,,,0.00,WUHU216HW,2013-03-30 18:44:00,
2013-03-30 14:49:00,58.1,25.9,30.05,NNW,338,2.0,4.7,29,0.00,,,0.00,WUHU216HW,2013-03-30 18:49:00,
2013-03-30 14:54:00,58.1,27.6,30.05,SSW,203,2.5,4.7,31,0.00,,,0.00,WUHU216HW,2013-03-30 18:54:00,
2013-03-30 14:59:00,58.1,27.6,30.05,West,270,4.7,4.9,31,0.00,,,0.00,WUHU216HW,2013-03-30 18:59:00,
2013-03-30 15:04:00,58.3,28.4,30.04,WSW,248,1.1,4.9,32,0.00,,,0.00,WUHU216HW,2013-03-30 19:04:00,
2013-03-30 15:09:00,58.9,29.0,30.05,NNE,23,1.3,5.4,32,0.00,,,0.00,WUHU216HW,2013-03-30 19:09:00,
2013-03-30 15:14:00,59.0,29.2,30.05,SSE,158,2.2,5.4,32,0.00,,,0.00,WUHU216HW,2013-03-30 19:14:00,
2013-03-30 15:19:00,59.0,29.2,30.04,SSW,203,2.7,4.0,32,0.00,,,0.00,WUHU216HW,2013-03-30 19:19:00,
2013-03-30 15:24:00,58.9,28.3,30.04,SE,135,1.1,4.5,31,0.00,,,0.00,WUHU216HW,2013-03-30 19:24:00,
2013-03-30 15:29:00,58.7,28.8,30.04,NW,315,4.0,5.4,32,0.00,,,0.00,WUHU216HW,2013-03-30 19:29:00,
2013-03-30 15:34:00,58.9,29.0,30.04,West,270,1.1,5.4,32,0.00,,,0.00,WUHU216HW,2013-03-30 19:34:00,
2013-03-30 15:39:00,59.2,29.3,30.04,SSW,203,2.0,4.0,32,0.00,,,0.00,WUHU216HW,2013-03-30 19:39:00,
2013-03-30 15:44:00,59.4,29.4,30.03,SW,225,3.1,4.9,32,0.00,,,0.00,WUHU216HW,2013-03-30 19:44:00,
2013-03-30 15:49:00,59.6,30.2,30.03,SW,225,1.8,4.9,33,0.00,,,0.00,WUHU216HW,2013-03-30 19:49:00,
2013-03-30 15:54:00,59.4,29.4,30.03,SW,225,2.0,3.4,32,0.00,,,0.00,WUHU216HW,2013-03-30 19:54:00,
2013-03-30 15:59:00,58.9,29.0,30.03,SSE,158,0.7,3.1,32,0.00,,,0.00,WUHU216HW,2013-03-30 19:59:00,
2013-03-30 16:04:00,58.3,28.4,30.03,NW,315,3.4,3.4,32,0.00,,,0.00,WUHU216HW,2013-03-30 20:04:00,
2013-03-30 16:09:00,58.0,28.2,30.03,NNW,338,0.4,3.4,32,0.00,,,0.00,WUHU216HW,2013-03-30 20:09:00,
2013-03-30 16:14:00,58.0,28.2,30.03,WSW,248,4.5,4.5,32,0.00,,,0.00,WUHU216HW,2013-03-30 20:14:00,
2013-03-30 16:19:00,57.8,28.0,30.03,North,0,0.0,4.5,32,0.00,,,0.00,WUHU216HW,2013-03-30 20:19:00,
2013-03-30 16:24:00,57.8,28.7,30.03,SE,135,1.6,4.5,33,0.00,,,0.00,WUHU216HW,2013-03-30 20:24:00,
2013-03-30 16:29:00,57.4,28.4,30.03,SSW,203,3.4,4.7,33,0.00,,,0.00,WUHU216HW,2013-03-30 20:29:00,
2013-03-30 16:34:00,56.9,30.0,30.03,SSW,203,3.6,4.7,36,0.00,,,0.00,WUHU216HW,2013-03-30 20:34:00,
2013-03-30 16:39:00,56.0,31.3,30.03,SW,225,2.0,4.3,39,0.00,,,0.00,WUHU216HW,2013-03-30 20:39:00,
2013-03-30 16:44:00,55.3,31.3,30.03,SSW,203,4.5,4.5,40,0.00,,,0.00,WUHU216HW,2013-03-30 20:44:00,
2013-03-30 16:49:00,54.7,30.9,30.04,South,180,2.5,4.7,40,0.00,,,0.00,WUHU216HW,2013-03-30 20:49:00,
2013-03-30 16:54:00,54.5,30.7,30.04,SW,225,1.3,4.7,40,0.00,,,0.00,WUHU216HW,2013-03-30 20:54:00,
2013-03-30 16:59:00,54.4,31.1,30.04,SW,225,3.8,4.0,41,0.00,,,0.00,WUHU216HW,2013-03-30 20:59:00,
2013-03-30 17:04:00,54.4,33.3,30.04,SSE,158,1.8,4.9,45,0.00,,,0.00,WUHU216HW,2013-03-30 21:04:00,
2013-03-30 17:09:00,54.2,33.1,30.04,SW,225,4.0,5.4,45,0.00,,,0.00,WUHU216HW,2013-03-30 21:09:00,
2013-03-30 17:14:00,53.8,32.3,30.04,SSW,203,3.4,5.4,44,0.00,,,0.00,WUHU216HW,2013-03-30 21:14:00,
2013-03-30 17:19:00,53.8,32.3,30.04,SSE,158,0.7,4.9,44,0.00,,,0.00,WUHU216HW,2013-03-30 21:19:00,
2013-03-30 17:24:00,53.8,32.3,30.04,South,180,1.1,4.9,44,0.00,,,0.00,WUHU216HW,2013-03-30 21:24:00,
2013-03-30 17:29:00,53.5,32.5,30.05,SSW,203,3.4,3.6,45,0.00,,,0.00,WUHU216HW,2013-03-30 21:29:00,
2013-03-30 17:34:00,53.1,31.6,30.04,SSW,203,1.1,4.3,44,0.00,,,0.00,WUHU216HW,2013-03-30 21:34:00,
2013-03-30 17:39:00,52.9,32.1,30.04,South,180,1.6,4.3,45,0.00,,,0.00,WUHU216HW,2013-03-30 21:39:00,
2013-03-30 17:44:00,52.7,31.9,30.04,SW,225,1.1,4.0,45,0.00,,,0.00,WUHU216HW,2013-03-30 21:44:00,
2013-03-30 17:49:00,52.4,31.0,30.04,SSW,203,1.3,4.9,44,0.00,,,0.00,WUHU216HW,2013-03-30 21:49:00,
2013-03-30 17:54:00,52.2,31.4,30.04,SW,225,2.5,4.9,45,0.00,,,0.00,WUHU216HW,2013-03-30 21:54:00,
2013-03-30 17:59:00,52.4,31.5,30.04,SW,225,2.5,4.3,45,0.00,,,0.00,WUHU216HW,2013-03-30 21:59:00,
2013-03-30 18:04:00,52.2,32.0,30.05,SW,225,2.5,4.9,46,0.00,,,0.00,WUHU216HW,2013-03-30 22:04:00,
2013-03-30 18:09:00,52.2,32.5,30.05,South,180,2.7,4.9,47,0.00,,,0.00,WUHU216HW,2013-03-30 22:09:00,
2013-03-30 18:14:00,51.8,32.1,30.05,WSW,248,2.5,5.4,47,0.00,,,0.00,WUHU216HW,2013-03-30 22:14:00,
2013-03-30 18:19:00,51.7,32.1,30.05,SSE,158,2.7,5.4,47,0.00,,,0.00,WUHU216HW,2013-03-30 22:19:00,
2013-03-30 18:24:00,51.5,31.9,30.05,East,90,0.9,4.0,47,0.00,,,0.00,WUHU216HW,2013-03-30 22:24:00,
2013-03-30 18:29:00,51.3,32.2,30.05,WSW,248,0.0,3.4,48,0.00,,,0.00,WUHU216HW,2013-03-30 22:29:00,
2013-03-30 18:34:00,51.3,32.2,30.05,South,180,0.4,2.9,48,0.00,,,0.00,WUHU216HW,2013-03-30 22:34:00,
2013-03-30 18:39:00,51.1,32.7,30.05,SSE,158,2.7,2.9,49,0.00,,,0.00,WUHU216HW,2013-03-30 22:39:00,
2013-03-30 18:44:00,50.9,33.0,30.05,SSW,203,3.4,4.7,50,0.00,,,0.00,WUHU216HW,2013-03-30 22:44:00,
2013-03-30 18:49:00,50.8,32.3,30.05,South,180,1.1,4.7,49,0.00,,,0.00,WUHU216HW,2013-03-30 22:49:00,
2013-03-30 18:54:00,50.4,32.0,30.05,South,180,0.4,3.6,49,0.00,,,0.00,WUHU216HW,2013-03-30 22:54:00,
2013-03-30 18:59:00,50.2,32.9,30.05,WSW,248,3.1,3.1,51,0.00,,,0.00,WUHU216HW,2013-03-30 22:59:00,
2013-03-30 19:04:00,50.0,33.1,30.05,SW,225,0.7,3.1,52,0.00,,,0.00,WUHU216HW,2013-03-30 23:04:00,
2013-03-30 19:09:00,49.9,32.9,30.05,SSW,203,0.9,2.9,52,0.00,,,0.00,WUHU216HW,2013-03-30 23:09:00,
2013-03-30 19:14:00,49.7,32.8,30.06,South,180,0.2,2.0,52,0.00,,,0.00,WUHU216HW,2013-03-30 23:14:00,
2013-03-30 19:19:00,49.7,33.2,30.05,SSE,158,0.2,2.0,53,0.00,,,0.00,WUHU216HW,2013-03-30 23:19:00,
2013-03-30 19:24:00,49.3,32.9,30.06,NW,315,2.0,2.5,53,0.00,,,0.00,WUHU216HW,2013-03-30 23:24:00,
2013-03-30 19:29:00,49.3,33.3,30.06,SSW,203,1.1,2.9,54,0.00,,,0.00,WUHU216HW,2013-03-30 23:29:00,
2013-03-30 19:34:00,49.1,33.1,30.06,SSW,203,1.8,2.9,54,0.00,,,0.00,WUHU216HW,2013-03-30 23:34:00,
2013-03-30 19:39:00,48.8,33.3,30.06,SSE,158,0.0,2.5,55,0.00,,,0.00,WUHU216HW,2013-03-30 23:39:00,
2013-03-30 19:44:00,48.6,33.1,30.06,SSW,203,0.9,2.2,55,0.00,,,0.00,WUHU216HW,2013-03-30 23:44:00,
2013-03-30 19:49:00,48.6,33.6,30.06,SSE,158,0.0,1.8,56,0.00,,,0.00,WUHU216HW,2013-03-30 23:49:00,
2013-03-30 19:54:00,48.4,33.4,30.06,SSW,203,0.0,1.8,56,0.00,,,0.00,WUHU216HW,2013-03-30 23:54:00,
2013-03-30 19:59:00,48.2,33.2,30.07,West,270,0.0,0.7,56,0.00,,,0.00,WUHU216HW,2013-03-30 23:59:00,
2013-03-30 20:04:00,48.1,33.5,30.06,SSE,158,0.0,1.3,57,0.00,,,0.00,WUHU216HW,2013-03-31 00:04:00,
2013-03-30 20:09:00,47.9,33.4,30.07,SSE,158,0.0,1.3,57,0.00,,,0.00,WUHU216HW,2013-03-31 00:09:00,
2013-03-30 20:14:00,47.9,33.9,30.07,SSW,203,0.4,0.7,58,0.00,,,0.00,WUHU216HW,2013-03-31 00:14:00,
2013-03-30 20:19:00,47.9,33.9,30.07,SSE,158,0.0,0.7,58,0.00,,,0.00,WUHU216HW,2013-03-31 00:19:00,
2013-03-30 20:24:00,47.7,34.1,30.07,SE,135,0.0,0.7,59,0.00,,,0.00,WUHU216HW,2013-03-31 00:24:00,
2013-03-30 20:30:00,47.5,33.9,30.07,ESE,113,0.0,0.7,59,0.00,,,0.00,WUHU216HW,2013-03-31 00:30:00,
2013-03-30 20:34:00,47.5,34.4,30.07,SSE,158,0.7,1.1,60,0.00,,,0.00,WUHU216HW,2013-03-31 00:34:00,
2013-03-30 20:39:00,47.3,34.2,30.07,SE,135,0.0,1.1,60,0.00,,,0.00,WUHU216HW,2013-03-31 00:39:00,
2013-03-30 20:44:00,47.3,34.2,30.07,SE,135,0.0,0.4,60,0.00,,,0.00,WUHU216HW,2013-03-31 00:44:00,
2013-03-30 20:49:00,47.2,34.4,30.08,SE,135,0.2,0.2,61,0.00,,,0.00,WUHU216HW,2013-03-31 00:49:00,
2013-03-30 20:54:00,47.2,34.4,30.08,SE,135,0.0,0.4,61,0.00,,,0.00,WUHU216HW,2013-03-31 00:54:00,
2013-03-30 20:59:00,46.8,34.0,30.08,East,90,0.0,0.4,61,0.00,,,0.00,WUHU216HW,2013-03-31 00:59:00,
2013-03-30 21:04:00,46.8,34.0,30.08,East,90,0.0,0.0,61,0.00,,,0.00,WUHU216HW,2013-03-31 01:04:00,
2013-03-30 21:09:00,46.8,34.0,30.08,East,90,0.0,0.0,61,0.00,,,0.00,WUHU216HW,2013-03-31 01:09:00,
2013-03-30 21:14:00,46.6,34.3,30.08,East,90,0.0,0.0,62,0.00,,,0.00,WUHU216HW,2013-03-31 01:14:00,
2013-03-30 21:19:00,46.4,34.1,30.08,East,90,0.0,0.0,62,0.00,,,0.00,WUHU216HW,2013-03-31 01:19:00,
2013-03-30 21:24:00,46.4,34.1,30.08,East,90,0.0,0.0,62,0.00,,,0.00,WUHU216HW,2013-03-31 01:24:00,
2013-03-30 21:29:00,46.3,34.3,30.08,SE,135,0.2,0.4,63,0.00,,,0.00,WUHU216HW,2013-03-31 01:29:00,
2013-03-30 21:34:00,46.1,34.1,30.08,SSE,158,0.2,1.1,63,0.00,,,0.00,WUHU216HW,2013-03-31 01:34:00,
2013-03-30 21:39:00,46.1,34.1,30.08,SSE,158,0.2,1.1,63,0.00,,,0.00,WUHU216HW,2013-03-31 01:39:00,
2013-03-30 21:44:00,45.9,34.0,30.08,SSE,158,0.0,0.7,63,0.00,,,0.00,WUHU216HW,2013-03-31 01:44:00,
2013-03-30 21:49:00,45.7,34.2,30.08,SE,135,0.0,0.4,64,0.00,,,0.00,WUHU216HW,2013-03-31 01:49:00,
2013-03-30 21:54:00,45.9,34.4,30.08,SE,135,0.0,0.0,64,0.00,,,0.00,WUHU216HW,2013-03-31 01:54:00,
2013-03-30 21:59:00,45.7,34.2,30.08,SSE,158,0.0,0.4,64,0.00,,,0.00,WUHU216HW,2013-03-31 01:59:00,
2013-03-30 22:04:00,45.5,34.0,30.08,SSE,158,0.0,0.4,64,0.00,,,0.00,WUHU216HW,2013-03-31 02:04:00,
2013-03-30 22:09:00,45.5,34.5,30.08,SSE,158,0.0,0.2,65,0.00,,,0.00,WUHU216HW,2013-03-31 02:09:00,
2013-03-30 22:15:00,45.4,34.3,30.08,SSE,158,0.0,0.2,65,0.00,,,0.00,WUHU216HW,2013-03-31 02:15:00,
2013-03-30 22:20:00,45.4,34.3,30.09,SSE,158,0.0,0.0,65,0.00,,,0.00,WUHU216HW,2013-03-31 02:20:00,
2013-03-30 22:25:00,45.2,34.5,30.09,SSE,158,0.0,0.0,66,0.00,,,0.00,WUHU216HW,2013-03-31 02:25:00,
2013-03-30 22:30:00,45.0,34.3,30.09,SSE,158,0.0,0.0,66,0.00,,,0.00,WUHU216HW,2013-03-31 02:30:00,
2013-03-30 22:35:00,45.0,34.3,30.08,SSE,158,0.0,0.0,66,0.00,,,0.00,WUHU216HW,2013-03-31 02:35:00,
2013-03-30 22:40:00,45.0,34.7,30.09,SSE,158,0.0,0.0,67,0.00,,,0.00,WUHU216HW,2013-03-31 02:40:00,
2013-03-30 22:45:00,44.8,34.5,30.09,SSE,158,0.0,0.0,67,0.00,,,0.00,WUHU216HW,2013-03-31 02:45:00,
2013-03-30 22:50:00,44.6,34.3,30.09,SSE,158,0.0,0.0,67,0.00,,,0.00,WUHU216HW,2013-03-31 02:50:00,
2013-03-30 22:55:00,44.6,34.3,30.09,SSE,158,0.0,0.0,67,0.00,,,0.00,WUHU216HW,2013-03-31 02:55:00,
2013-03-30 23:00:00,44.3,34.4,30.09,SSE,158,0.0,0.0,68,0.00,,,0.00,WUHU216HW,2013-03-31 03:00:00,
2013-03-30 23:05:00,44.3,34.4,30.09,SSE,158,0.0,0.0,68,0.00,,,0.00,WUHU216HW,2013-03-31 03:05:00,
2013-03-30 23:10:00,44.1,34.2,30.09,SSE,158,0.0,0.0,68,0.00,,,0.00,WUHU216HW,2013-03-31 03:10:00,
2013-03-30 23:15:00,44.1,34.2,30.09,SSE,158,0.0,0.0,68,0.00,,,0.00,WUHU216HW,2013-03-31 03:15:00,
2013-03-30 23:20:00,43.9,34.0,30.09,SSE,158,0.0,0.0,68,0.00,,,0.00,WUHU216HW,2013-03-31 03:20:00,
2013-03-30 23:25:00,43.7,33.8,30.09,SSE,158,0.0,0.0,68,0.00,,,0.00,WUHU216HW,2013-03-31 03:25:00,
2013-03-30 23:30:00,43.6,33.8,30.09,SSE,158,0.0,0.0,68,0.00,,,0.00,WUHU216HW,2013-03-31 03:30:00,
2013-03-30 23:35:00,43.6,34.1,30.09,SSE,158,0.0,0.0,69,0.00,,,0.00,WUHU216HW,2013-03-31 03:35:00,
2013-03-30 23:40:00,43.6,34.1,30.09,SSE,158,0.0,0.0,69,0.00,,,0.00,WUHU216HW,2013-03-31 03:40:00,
2013-03-30 23:45:00,43.4,33.9,30.09,SSE,158,0.0,0.0,69,0.00,,,0.00,WUHU216HW,2013-03-31 03:45:00,
2013-03-30 23:50:00,43.2,33.8,30.09,SSE,158,0.0,0.0,69,0.00,,,0.00,WUHU216HW,2013-03-31 03:50:00,
2013-03-30 23:55:00,43.2,34.2,30.09,SSE,158,0.0,0.0,70,0.00,,,0.00,WUHU216HW,2013-03-31 03:55:00,